This is the latest recevied weather packets stored in our database for station/object K2ATL. If no packets are shown the sender has not sent any weather packets the latest 10 day(s).
| Time | Temp. | Humidity | Pressure | Rain* | Wind** | Luminosity | Snow |
|---|---|---|---|---|---|---|---|
| 1787559118 | 21.11° C | 64% | 1102.3 hPa | 0 mm | - | 0 W/m² | - |
| 1787558814 | 21.11° C | 66% | 1102.3 hPa | 0 mm | - | 0 W/m² | - |
| 1787558510 | 20.56° C | 66% | 1102.2 hPa | 0 mm | - | 0 W/m² | - |
| 1787558206 | 21.11° C | 65% | 1102.3 hPa | 0 mm | - | 0 W/m² | - |
| 1787557905 | 21.11° C | 64% | 1102.3 hPa | 0 mm | - | 0 W/m² | - |
| 1787557601 | 21.67° C | 63% | 1102.3 hPa | 0 mm | - | 0 W/m² | - |
| 1787557298 | 21.67° C | 63% | 1102.2 hPa | 0 mm | - | 0 W/m² | - |
| 1787556995 | 21.67° C | 62% | 1102.3 hPa | 0 mm | - | 0 W/m² | - |
| 1787556691 | 21.67° C | 62% | 1102.3 hPa | 0 mm | - | 0 W/m² | - |
| 1787556386 | 22.22° C | 62% | 1102.5 hPa | 0 mm | - | 0 W/m² | - |
| 1787556083 | 22.22° C | 60% | 1102.3 hPa | 0 mm | - | 0 W/m² | - |
| 1787555777 | 22.22° C | 60% | 1102.5 hPa | 0 mm | - | 0 W/m² | - |
| 1787555476 | 21.67° C | 62% | 1102.3 hPa | 0 mm | - | 0 W/m² | - |
| 1787555173 | 21.67° C | 63% | 1102.5 hPa | 0 mm | - | 0 W/m² | - |
| 1787554868 | 21.67° C | 63% | 1102.5 hPa | 0 mm | - | 0 W/m² | - |
| 1787554564 | 21.67° C | 63% | 1102.7 hPa | 0 mm | - | 0 W/m² | - |
| 1787554262 | 21.67° C | 63% | 1102.8 hPa | 0 mm | - | 0 W/m² | - |
| 1787553958 | 21.67° C | 64% | 1102.6 hPa | 0 mm | - | 0 W/m² | - |
| 1787553653 | 21.67° C | 64% | 1102.7 hPa | 0 mm | - | 0 W/m² | - |
| 1787553349 | 21.67° C | 64% | 1102.7 hPa | 0 mm | - | 0 W/m² | - |
| 1787553046 | 21.67° C | 64% | 1103 hPa | 0 mm | - | 0 W/m² | - |
| 1787552742 | 21.67° C | 64% | 1102.7 hPa | 0 mm | - | 0 W/m² | - |
| 1787552438 | 21.67° C | 64% | 1102.6 hPa | 0 mm | - | 0 W/m² | - |
| 1787552133 | 21.67° C | 64% | 1103 hPa | 0 mm | - | 0 W/m² | - |
| 1787551832 | 21.67° C | 66% | 1102.8 hPa | 0 mm | - | 0 W/m² | - |
* Rain latest hour (hover to see other rain measurements)
** Current wind speed in m/s (hover to see current wind gust speed)